Theta_e
320 320 320 319 319 318 319 318 317 318 319 319 319 319 318 318 318 319 319 319 318 319 319 320 318 320 309 297 295 307 321 313 314 313 306 305 299 296 294 295 295 292 294 298 297 296 295
320 320 319 319 319 318 318 318 317 317 318 319 319 318 317 317 318 318 319 319 318 319 318 320 318 317 301 291 302 305 306 307 307 306 304 302 299 298 295 293 292 294 295 295 295 295 296
320 319 319 318 318 317 317 317 317 317 317 318 318 318 317 317 317 317 317 318 319 319 317 319 318 306 298 294 303 304 305 304 307 307 304 304 302 296 294 292 296 295 290 292 293 295 293
319 319 319 318 318 317 317 316 316 316 317 318 318 318 317 317 317 317 317 317 318 318 317 318 318 300 292 305 303 305 305 304 306 308 306 306 304 299 295 294 294 289 289 285 292 294 293
319 319 318 318 318 317 317 316 316 317 317 318 317 317 317 317 317 317 317 318 318 318 318 318 302 297 291 310 302 302 303 302 302 303 302 305 300 294 293 288 284 285 281 284 289 294 293
318 318 318 317 317 317 316 316 315 316 316 317 317 317 317 316 317 317 317 317 316 313 311 307 302 293 296 297 301 303 304 304 300 300 299 298 293 288 287 285 278 282 282 284 285 290 289
317 317 317 317 316 316 316 315 315 314 315 316 316 316 315 315 316 316 308 304 300 295 298 294 295 296 298 302 304 301 303 300 299 296 288 293 286 283 284 286 286 285 283 283 286 291 288
316 317 317 316 316 316 315 315 314 314 314 315 316 315 315 315 315 315 307 298 298 297 291 298 299 299 301 302 297 300 303 294 294 289 290 288 285 287 290 289 288 285 283 284 287 290 287
316 316 316 316 316 315 315 314 314 314 313 314 315 315 314 315 314 307 301 301 306 303 292 295 298 298 299 301 296 296 299 294 291 288 288 284 287 291 290 287 287 284 283 284 285 287 287
315 315 315 315 315 315 314 314 314 314 313 312 314 315 314 314 306 301 300 306 306 304 287 290 294 297 300 300 292 300 298 296 291 288 289 287 290 289 287 287 287 284 288 288 287 282 279
314 314 315 315 315 314 314 314 314 313 314 312 313 314 314 313 301 301 304 306 304 298 272 293 294 302 299 296 295 294 298 295 289 289 289 285 287 287 287 288 288 287 289 287 286 282 280
316 316 316 316 315 315 314 314 313 314 313 312 312 314 314 304 302 303 306 304 302 283 272 289 294 293 292 294 293 295 293 295 294 291 289 287 290 288 287 289 289 290 287 287 284 282 276
317 316 316 317 316 316 315 314 313 313 313 312 312 313 310 305 299 305 305 301 283 275 289 288 289 292 291 290 291 292 289 287 286 282 282 285 286 288 290 287 289 288 283 276 276 275 276
319 317 316 316 316 315 315 314 313 313 312 312 311 312 309 307 306 306 300 289 277 284 286 292 291 290 287 289 288 289 287 284 285 286 281 279 279 286 288 286 285 285 284 276 272 275 277
316 318 317 316 316 316 315 314 313 312 312 311 310 303 303 305 306 304 295 278 280 285 291 290 289 284 284 287 287 285 284 284 285 286 283 282 281 286 287 288 288 285 281 285 279 276 276
311 317 317 317 317 316 315 313 312 312 312 311 298 300 302 307 306 301 291 287 287 292 292 289 283 284 281 284 284 284 284 286 286 287 287 285 280 285 287 288 288 285 287 280 278 273 274
309 313 317 317 317 316 315 313 311 311 310 310 298 296 303 307 303 295 284 285 291 293 293 289 284 284 284 284 283 282 284 285 286 286 286 285 283 281 284 283 283 283 282 282 281 279 275
306 306 306 317 316 315 315 313 310 309 308 301 295 287 300 305 291 289 286 292 295 291 292 290 289 287 285 286 283 282 284 285 289 288 286 286 283 277 281 285 287 285 284 283 278 276 277
304 305 306 307 315 314 314 313 310 308 306 295 289 292 301 301 283 284 290 293 292 290 290 290 289 290 288 286 283 285 286 289 289 288 286 287 280 274 279 282 284 283 284 284 281 279 277
305 304 305 305 309 312 313 313 310 308 307 297 291 284 292 294 290 287 288 289 289 293 292 291 290 290 288 286 286 285 285 288 288 289 296 292 282 280 277 280 282 280 283 284 282 273 276
305 304 305 305 305 308 310 312 311 308 306 297 292 288 289 285 288 288 289 289 289 288 292 292 289 289 287 284 284 285 285 285 287 293 288 287 278 282 282 284 283 283 282 283 278 282 277
303 305 305 305 304 304 307 307 310 309 306 295 289 289 290 286 288 288 289 286 289 290 290 288 287 290 288 285 287 285 286 284 284 285 286 285 277 274 273 282 282 281 283 284 283 283 282
302 303 303 304 305 304 303 305 306 308 304 295 295 294 290 288 287 286 286 288 289 292 292 292 291 289 288 289 290 289 289 289 288 285 283 283 278 275 275 279 277 272 280 283 283 283 283
301 302 302 301 303 304 304 303 305 306 305 297 296 294 289 285 285 287 290 290 290 290 289 291 291 289 290 292 292 290 287 288 288 286 287 281 279 278 273 276 269 280 283 284 282 282 282
299 300 301 302 301 303 304 303 303 304 306 299 298 294 290 284 287 287 288 289 290 290 289 290 290 291 292 289 284 281 279 281 281 282 283 285 283 277 274 273 278 279 282 281 281 279 281
298 299 299 300 301 301 302 303 305 306 306 301 298 299 295 286 286 290 288 290 287 287 287 287 290 291 291 287 283 278 275 279 276 278 282 284 285 282 275 272 272 276 281 284 282 275 281
298 298 298 299 300 300 302 302 303 305 305 300 297 299 295 288 287 287 286 288 291 288 286 286 287 288 289 282 280 277 277 280 276 275 276 278 281 281 279 278 278 281 282 283 274 275 279
297 298 297 297 299 300 301 302 303 303 303 299 295 298 294 288 289 288 288 286 287 288 285 286 286 285 284 282 281 279 277 279 278 279 278 278 278 278 280 277 274 282 281 279 279 279 279
297 297 297 297 298 299 300 300 301 301 305 300 293 297 298 291 287 290 288 289 288 287 286 285 285 285 287 284 283 282 280 277 277 275 281 278 281 279 281 280 281 280 280 280 280 278 278
Wind_Speed
16 16 16 15 15 15 13 12 12 11 10 11 11 11 9 10 9 8 7 6 2 6 4 2 4 8 4 2 2 3 4 5 3 6 5 4 4 3 4 4 3 3 3 4 3 3 4
16 16 16 16 16 15 14 13 11 11 11 9 9 10 10 9 10 9 8 7 5 3 4 1 4 7 2 1 3 4 4 4 1 3 3 4 5 4 5 3 3 2 4 4 1 0 1
17 17 16 16 15 15 15 14 13 11 10 10 9 9 10 10 10 10 9 9 7 6 5 1 3 3 5 3 2 6 2 1 2 3 5 2 3 3 4 4 3 5 4 3 1 2 1
17 17 17 17 16 15 15 15 14 12 11 11 11 9 10 10 11 11 11 9 7 7 6 2 3 1 2 2 1 3 3 1 1 4 5 4 2 6 4 3 5 3 5 2 2 4 1
18 18 17 17 17 16 16 15 15 14 12 12 10 10 9 10 11 10 10 11 9 6 4 3 2 5 2 1 0 2 1 2 2 2 3 2 4 4 5 6 4 5 3 3 3 6 2
19 19 18 17 17 17 16 16 16 16 14 12 11 9 9 10 10 10 12 7 7 6 2 2 2 4 1 3 1 1 2 1 3 3 5 5 6 5 4 4 6 6 3 3 3 4 3
17 17 19 19 18 17 17 16 16 16 16 14 13 11 10 10 9 8 7 3 5 4 6 2 2 3 3 2 3 1 2 1 3 4 5 2 6 5 7 5 4 4 3 3 1 2 2
16 17 16 18 19 18 18 17 16 16 16 16 14 13 11 9 8 7 2 0 1 1 4 0 3 3 2 2 2 2 2 3 3 5 5 6 2 3 3 2 3 2 3 2 1 2 2
13 14 16 16 16 19 18 17 18 17 17 16 15 13 12 10 9 3 2 1 3 4 4 1 1 3 3 4 2 2 0 2 4 4 3 6 2 2 2 1 4 2 4 3 3 1 2
14 13 14 15 16 14 19 17 16 18 16 17 15 12 12 13 1 1 1 2 3 1 6 3 3 3 3 3 2 1 0 1 2 5 5 5 1 3 2 2 2 4 1 3 3 4 3
14 13 14 13 15 15 13 18 18 16 17 16 16 12 11 5 1 2 2 1 2 5 4 3 3 2 2 3 6 1 1 1 4 4 6 4 4 3 3 3 0 3 3 3 2 3 3
15 15 13 12 12 14 15 13 17 18 14 17 16 13 10 2 2 1 2 3 4 9 7 4 4 6 4 2 3 3 1 3 4 6 6 3 0 1 3 2 3 5 5 7 5 3 2
18 16 16 15 12 13 13 15 14 17 17 15 17 14 6 2 3 2 1 4 8 6 0 5 5 5 4 5 3 4 4 4 6 7 2 4 1 1 2 4 2 3 5 2 5 4 6
22 21 18 16 14 12 14 14 14 15 17 17 17 13 3 3 3 3 3 6 3 4 6 1 4 4 6 6 3 4 5 4 3 4 5 7 5 6 3 2 6 5 6 7 7 4 4
31 24 21 18 16 14 13 14 14 13 15 15 16 1 3 3 4 3 6 3 10 8 7 8 3 4 4 3 5 3 6 5 8 9 8 6 2 1 2 1 3 5 3 3 7 3 3
43 28 23 19 18 15 13 10 12 12 13 16 2 2 3 4 5 4 5 7 5 3 7 4 9 6 8 6 6 6 8 4 6 5 1 6 5 1 1 1 2 2 3 4 4 3 5
35 34 25 22 19 17 14 10 10 10 13 7 2 1 2 3 2 4 5 8 6 4 4 6 9 6 6 8 7 5 6 1 3 4 2 5 5 2 2 6 8 2 1 3 4 4 5
33 39 40 26 21 17 15 12 8 5 11 5 2 1 2 3 2 2 5 7 3 5 2 2 3 4 9 9 7 5 9 3 7 8 8 3 6 5 4 1 2 4 7 7 6 5 2
25 32 35 37 18 18 15 13 9 2 3 3 3 3 2 3 5 4 5 4 5 5 4 8 7 6 3 8 6 5 6 1 6 5 8 7 0 3 6 4 1 5 5 5 5 3 7
22 22 27 31 32 4 8 13 10 7 6 3 3 1 2 0 2 5 4 5 6 4 4 4 5 5 4 4 2 7 5 4 3 3 6 6 4 6 9 5 5 5 6 5 6 5 4
22 20 23 19 27 26 11 6 11 10 8 3 3 5 4 5 5 5 5 5 6 7 4 6 3 7 8 6 4 6 3 2 4 4 3 5 6 5 3 2 2 4 4 8 8 7 8
25 24 24 22 18 28 23 19 10 13 10 2 3 3 0 2 2 7 7 7 9 5 8 6 5 8 7 8 10 11 10 6 7 3 5 1 3 4 4 2 5 5 6 9 8 7 8
25 23 25 28 21 16 21 25 17 14 9 3 2 1 3 2 2 5 6 8 8 8 7 5 12 6 7 6 1 1 2 6 10 11 7 7 7 4 4 2 1 4 14 16 6 5 7
25 25 20 21 29 23 15 18 22 16 7 3 3 3 4 4 4 5 3 7 7 7 6 3 4 6 2 7 6 6 10 9 8 6 4 8 7 3 3 3 4 1 2 3 7 5 3
24 24 26 20 20 27 25 16 19 22 15 3 2 2 4 4 4 4 6 5 4 3 3 5 1 1 6 5 5 4 5 3 3 5 4 0 6 3 6 4 5 2 5 6 6 2 1
23 24 24 25 21 20 25 23 23 21 19 3 2 1 2 2 6 6 5 6 5 4 3 2 2 2 3 3 4 6 7 6 5 1 5 3 2 4 3 5 8 3 3 3 5 2 6
22 22 22 23 25 22 23 23 25 18 16 5 2 3 2 2 1 3 4 5 3 4 4 3 5 2 3 3 3 4 5 5 7 9 6 4 1 11 6 4 6 4 5 3 6 4 6
21 22 22 23 24 23 23 27 23 25 23 7 2 3 3 3 1 4 4 1 1 3 7 5 5 1 3 4 4 5 4 7 4 6 7 9 9 4 3 4 8 6 4 7 4 5 7
19 20 21 22 22 24 23 24 25 32 21 8 2 2 2 2 2 5 7 8 5 3 1 1 3 3 4 4 1 3 2 1 4 5 3 4 6 7 6 2 3 2 5 5 5 7 5
Wind_Direction
19 20 16 13 12 10 6 5 351 350 350 339 331 326 328 321 314 312 311 312 306 298 313 320 181 170 152 73 191 258 307 316 194 186 198 132 130 162 187 171 116 111 151 71 84 78 97
22 17 15 15 10 9 5 1 358 346 342 341 330 320 310 302 301 305 301 298 288 266 274 340 153 170 128 111 277 318 343 351 213 206 124 115 182 183 116 123 135 126 102 121 146 220 89
16 16 15 11 13 7 5 1 360 350 342 336 333 324 314 308 306 304 300 297 294 292 288 309 214 222 75 163 334 318 293 228 281 166 126 155 188 140 119 112 132 130 85 24 225 196 101
12 15 13 8 8 7 3 3 359 355 342 338 331 329 321 314 309 306 301 293 295 287 289 254 243 197 93 295 302 15 6 250 82 95 122 167 173 108 88 105 44 85 56 69 273 151 147
5 6 9 9 4 4 3 359 357 355 350 339 333 325 320 313 307 304 305 303 284 284 310 311 230 114 113 1 339 334 359 189 103 64 78 121 73 96 57 93 36 4 176 187 286 202 114
358 359 0 2 3 2 0 359 357 354 352 344 336 326 319 312 307 307 303 266 295 351 16 245 293 60 253 199 175 335 276 260 120 104 55 55 51 78 48 92 201 187 194 211 210 222 180
357 357 353 355 357 358 358 357 357 356 352 346 342 328 319 312 304 322 356 15 29 360 44 163 152 118 121 86 69 301 280 84 104 62 123 39 90 185 205 198 178 140 175 143 296 200 167
354 350 354 351 349 353 353 353 353 355 355 347 342 336 326 326 316 330 85 144 121 193 102 355 104 79 96 138 129 287 337 140 153 130 113 40 167 193 157 196 163 125 129 115 20 179 161
344 345 344 347 350 343 348 350 349 352 353 352 339 333 331 323 323 30 92 166 335 343 95 277 230 152 184 172 169 216 343 188 124 109 127 135 153 144 173 87 123 46 153 171 163 317 244
324 328 332 334 337 344 338 342 349 345 350 348 344 332 330 323 34 248 88 287 356 17 75 208 232 228 166 161 67 233 350 153 72 136 121 101 165 154 152 141 125 157 175 109 77 68 222
303 307 315 321 323 329 337 334 339 347 342 346 341 333 333 329 239 122 167 344 2 55 51 198 173 142 172 172 148 350 287 22 123 116 104 222 143 152 166 154 88 166 117 103 100 91 48
289 292 290 294 304 314 322 332 331 336 343 340 341 330 337 55 43 262 151 78 62 46 261 183 139 177 142 174 172 138 85 54 135 80 36 110 123 95 150 96 63 128 80 42 51 76 23
281 279 281 284 292 304 311 320 331 331 332 340 333 324 316 148 215 184 3 61 41 135 202 196 191 163 189 165 173 165 163 153 149 102 190 25 1 332 132 95 56 96 78 359 355 9 219
284 278 270 271 277 285 299 311 320 330 329 330 332 313 253 217 169 125 72 54 148 214 200 170 143 126 179 163 200 166 133 168 240 102 117 145 300 178 176 177 173 179 156 156 206 200 249
300 274 268 259 261 267 276 297 311 325 325 328 326 18 284 220 157 84 83 81 207 200 167 148 65 139 224 209 152 143 192 202 202 176 152 149 171 89 86 90 112 185 182 170 103 9 46
337 273 265 257 252 251 257 272 297 317 324 328 335 344 242 159 134 82 84 226 228 220 130 132 178 159 181 201 160 173 185 204 186 189 143 201 101 233 136 113 35 135 162 70 355 147 245
341 336 264 253 245 242 242 250 275 311 327 334 72 37 238 130 51 71 182 231 213 211 171 160 197 163 191 177 175 193 205 286 163 149 116 136 103 270 86 200 179 133 209 65 121 148 172
336 339 342 262 242 232 228 225 249 307 333 66 102 234 279 88 100 231 178 196 195 180 133 149 155 185 182 166 168 213 202 246 167 150 161 178 122 164 189 239 228 192 187 158 135 217 177
338 340 335 333 254 239 217 210 217 193 48 123 162 244 358 92 189 235 262 192 194 151 208 172 203 207 212 171 164 173 155 238 160 142 159 183 192 68 353 356 345 212 194 131 106 63 199
325 331 328 338 342 347 248 204 199 179 155 116 119 187 314 96 264 182 191 230 196 192 188 195 177 135 136 172 333 164 148 192 142 129 138 108 149 165 186 192 137 191 194 166 137 132 191
334 334 325 334 337 341 357 252 196 185 173 136 147 231 197 201 252 229 173 190 174 184 207 184 230 206 165 160 134 167 128 92 35 135 70 122 173 165 217 241 194 198 170 177 191 199 186
333 348 330 324 338 346 346 341 331 189 171 161 171 185 81 237 242 174 197 228 194 169 157 223 216 205 191 164 185 188 141 179 183 180 150 54 171 91 310 212 223 243 238 233 216 234 256
339 336 340 339 330 339 332 341 328 334 194 167 203 291 121 255 224 146 209 209 208 158 210 193 208 133 200 217 159 28 127 157 155 147 153 142 135 110 243 54 210 317 216 217 215 183 180
338 340 332 333 345 337 335 330 330 314 310 316 222 130 137 254 205 203 222 196 212 209 198 157 131 142 171 109 97 46 42 72 75 36 119 141 125 114 171 25 292 307 61 217 131 48 79
334 337 342 337 339 335 329 328 320 312 298 234 273 246 163 235 213 242 241 219 123 88 92 141 96 145 151 73 82 75 2 32 29 32 13 58 132 134 148 201 315 222 192 150 164 184 228
336 333 336 339 332 329 334 327 321 303 295 217 230 149 289 155 230 209 197 191 164 152 107 58 37 15 89 112 129 164 187 179 211 81 359 62 28 128 147 177 218 212 168 127 110 249 183
328 333 334 333 332 326 328 329 327 319 308 153 209 185 130 234 332 359 171 194 178 121 113 128 161 103 33 109 138 169 210 166 171 172 170 119 141 209 204 228 284 195 158 137 122 216 139
324 325 333 333 333 333 331 340 330 319 319 158 132 165 153 195 340 7 23 84 54 158 149 169 94 358 76 180 168 187 166 208 147 153 174 161 160 185 173 207 258 148 82 167 144 94 129
318 321 327 328 334 335 333 342 338 340 287 129 117 163 130 120 65 29 61 33 33 14 132 27 98 142 161 125 206 109 165 98 146 206 172 186 168 173 185 218 70 39 121 113 122 128 146